Simultaneous Nadir Overpasses (SNOs) Predictions

Prediction of SNOs between NOAA-19 and METOP-C Satellite Orbit:

Table of predicted SNOs for the next 14.0 days since TLE Epoch: 6/14/2019
Index Date (NOAA-19) Time (NOAA-19) Lat,Lon (NOAA-19) SZA (NOAA-19 ) Date (METOP-C) Time (METOP-C) Lat,Lon (METOP-C) SZA (METOP-C ) Distance(km) Time Diff (sec)
1 06/20/2019 15:41:39 -79.28, 140.70 123.77 06/20/2019 15:42:40 -79.30, 140.71 123.74 1.56 61
2 06/20/2019 16:32:35 79.30, -52.15 56.24 06/20/2019 16:33:20 79.28, -52.06 56.24 2.26 45
3 06/20/2019 17:23:40 -79.29, 115.16 123.77 06/20/2019 17:24:02 -79.28, 115.27 123.76 2.35 22
4 06/20/2019 18:14:35 79.27, -77.42 56.23 06/20/2019 18:14:42 79.27, -77.51 56.22 1.81 7
5 06/20/2019 19:05:40 -79.26, 89.88 123.78 06/20/2019 19:05:24 -79.27, 89.82 123.78 1.44 16
6 06/20/2019 19:56:36 79.28,-102.97 56.23 06/20/2019 19:56:04 79.26,-102.95 56.20 2.34 32
7 06/20/2019 20:47:41 -79.27, 64.34 123.78 06/20/2019 20:46:46 -79.26, 64.38 123.80 1.58 55




NCC Satellite Simultaneous Nadir Overpasses (SNOs) Prediction Service
